Weather History for Chievres, Belgium

Change the Weather History Date:

Monday, May 20, 2013

  Actual Average Record
Temperature  
Mean Temperature 50 °F -  
Max Temperature 53 °F 62 °F 74 °F (2014)
Min Temperature 47 °F 52 °F 41 °F (2008)
Degree Days  
Heating Degree Days 15    
Moisture  
Dew Point 48 °F    
Average Humidity 92    
Maximum Humidity 100    
Minimum Humidity 82    
Precipitation  
Precipitation 0.03 in - - ()
Sea Level Pressure  
Sea Level Pressure 29.81 in    
Wind  
Wind Speed 5 mph ()    
Max Wind Speed 8 mph    
Max Gust Speed 16 mph    
Visibility 4.1 miles    
Events Rain    
Averages and records for this station are not official NWS values.
T = Trace of Precipitation, MM = Missing Value Source: Averaged Metar Reports

Daily Weather History Graph

Daily Weather History Graph

Search for Another Location

Airport:

Trip Planner

Search our weather history database for the weather conditions in past years. The results will help you decide how hot, cold, wet, or windy it might be!

Date:

Astronomy

May. 20, 2013 Rise Set
Actual Time 5:49 AM CEST 9:33 PM CEST
Civil Twilight 5:08 AM CEST 10:14 PM CEST
Nautical Twilight 4:12 AM CEST 11:11 PM CEST
Astronomical Twilight 2:46 AM CEST 12:40 AM CEST
Moon 3:53 PM CEST (5/20) 3:10 AM CEST (5/20)
Length of Visible Light 17h 06m
Length of Day
15h 43m
Waxing Gibbous, 72% of the Moon is Illuminated
May 20
Waxing Gibbous
May 25
Full
May 31
Last Quarter
Jun 8
New
Jun 16
First Quarter

Hourly Weather History & Observations

Time (CEST) Temp. Dew Point Humidity Pressure Visibility Wind Dir Wind Speed Gust Speed Precip Events Conditions
12:25 AM 50.0 °F 46.4 °F 87% 29.83 in 4.3 mi NW 5.8 mph - N/A   Mostly Cloudy
1:25 AM 48.2 °F 46.4 °F 93% 29.83 in 3.7 mi WNW 6.9 mph - N/A   Mostly Cloudy
2:00 AM 49 °F 46 °F 83% 29.84 in 4 mi WNW 4.5 mph - -   Scattered Clouds
2:25 AM 48.2 °F 46.4 °F 93% 29.83 in 3.7 mi WNW 5.8 mph - N/A   Mostly Cloudy
3:20 AM 48.2 °F 46.4 °F 93% 29.83 in - West 4.6 mph - N/A   Overcast
3:25 AM 48.2 °F 46.4 °F 93% 29.83 in - West 4.6 mph - N/A   Mostly Cloudy
3:26 AM 48.2 °F 46.4 °F 93% 29.83 in 3.1 mi West 4.6 mph - N/A   Overcast
3:32 AM 48.2 °F 46.4 °F 93% 29.83 in - West 5.8 mph - N/A   Mostly Cloudy
4:25 AM 48.2 °F 46.4 °F 93% 29.80 in 3.1 mi West 6.9 mph - N/A   Overcast
4:28 AM 48.2 °F 46.4 °F 93% 29.80 in - West 5.8 mph - N/A   Overcast
5:00 AM 49 °F 46 °F 85% 29.82 in 3 mi West 6.7 mph - -   Mist
5:25 AM 48.2 °F 46.4 °F 93% 29.80 in - West 6.9 mph - N/A   Overcast
5:54 AM 48.2 °F 46.4 °F 93% 29.80 in 3.1 mi West 6.9 mph - N/A Rain Light Rain Showers
6:04 AM 48.2 °F 46.4 °F 93% 29.80 in - West 5.8 mph - N/A   Overcast
6:10 AM 48.2 °F 44.6 °F 87% 29.80 in 3.1 mi West 5.8 mph - N/A   Overcast
6:25 AM 48.2 °F 44.6 °F 87% 29.80 in 3.1 mi West 5.8 mph - N/A Rain Light Rain Showers
6:31 AM 48.2 °F 44.6 °F 87% 29.80 in - West 8.1 mph - N/A Rain Light Rain Showers
6:37 AM 48.2 °F 46.4 °F 93% 29.80 in 2.2 mi West 6.9 mph - N/A Rain Light Rain Showers
6:58 AM 48.2 °F 46.4 °F 93% 29.80 in - West 5.8 mph - N/A Rain Light Rain Showers
7:04 AM 48.2 °F 46.4 °F 93% 29.80 in 2.2 mi West 5.8 mph - N/A Rain Light Rain Showers
7:25 AM 48.2 °F 46.4 °F 93% 29.80 in 1.6 mi West 5.8 mph - N/A Rain Light Rain
7:52 AM 48.2 °F 46.4 °F 93% 29.80 in 0.9 mi West 5.8 mph - N/A   Drizzle
8:00 AM 48 °F 47 °F 93% 29.81 in 1 mi West 4.5 mph - - Rain Drizzle
8:25 AM 48.2 °F 46.4 °F 93% 29.80 in 0.9 mi SW 5.8 mph - N/A Rain Light Rain
8:42 AM 48.2 °F 46.4 °F 93% 29.80 in 1.0 mi SW 6.9 mph - N/A   Drizzle
8:48 AM 48.2 °F 46.4 °F 93% 29.80 in 0.9 mi SW 6.9 mph - N/A   Drizzle
8:57 AM 48.2 °F 46.4 °F 93% 29.80 in 1.0 mi SW 6.9 mph - N/A   Drizzle
9:25 AM 48.2 °F 46.4 °F 93% 29.80 in 1.4 mi SW 5.8 mph - N/A   Light Drizzle
10:25 AM 48.2 °F 46.4 °F 93% 29.80 in - SW 5.8 mph - N/A   Light Drizzle
11:00 AM 49 °F 47 °F 92% 29.81 in 1 mi SW 6.7 mph - - Rain Drizzle
11:25 AM 48.2 °F 48.2 °F 100% 29.80 in 1.2 mi SW 6.9 mph - N/A Rain Light Rain Showers
12:25 PM 50.0 °F 48.2 °F 94% 29.80 in - SW 6.9 mph - N/A   Mostly Cloudy
1:25 PM 50.0 °F 48.2 °F 94% 29.80 in 3.7 mi SW 6.9 mph - N/A   Mostly Cloudy
1:35 PM 50.0 °F 48.2 °F 94% 29.80 in 5.0 mi SW 5.8 mph - N/A   Mostly Cloudy
2:00 PM 51 °F 49 °F 89% 29.81 in 6 mi SW 6.7 mph - -   Clear
2:25 PM 51.8 °F 48.2 °F 88% 29.80 in 6.2 mi SSW 6.9 mph - N/A   Mostly Cloudy
3:25 PM 51.8 °F 50.0 °F 94% 29.80 in 6.2 mi Variable 3.5 mph - N/A   Mostly Cloudy
4:00 PM 53.6 °F 48.2 °F 82% 29.80 in 6.2 mi Variable 2.3 mph - N/A   Overcast
4:10 PM 53.6 °F 50.0 °F 88% 29.80 in 6.2 mi Variable 2.3 mph - N/A   Mostly Cloudy
4:25 PM 53.6 °F 50.0 °F 88% 29.80 in 6.2 mi SSW 4.6 mph - N/A   Overcast
4:40 PM 51.8 °F 50.0 °F 94% 29.80 in 6.2 mi Variable 3.5 mph - N/A   Mostly Cloudy
4:46 PM 51.8 °F 48.2 °F 88% 29.80 in 6.2 mi Variable 3.5 mph - N/A   Mostly Cloudy
5:00 PM 53 °F 50 °F 85% 29.82 in 17 mi 2.2 mph - -   Mostly Cloudy
5:00 PM 51.8 °F 50.0 °F 94% 29.80 in 6.2 mi Variable 2.3 mph - N/A   Overcast
5:25 PM 53.6 °F 50.0 °F 88% 29.80 in 6.2 mi Variable 2.3 mph - N/A   Overcast
6:25 PM 51.8 °F 50.0 °F 94% 29.80 in 6.2 mi Variable 1.2 mph - N/A   Drizzle
6:45 PM 51.8 °F 50.0 °F 94% 29.80 in 6.2 mi Variable 2.3 mph - N/A   Drizzle
7:25 PM 51.8 °F 50.0 °F 94% 29.80 in 6.2 mi Variable 3.5 mph - N/A Rain Light Rain
7:40 PM 51.8 °F 50.0 °F 94% 29.80 in 6.2 mi Variable 2.3 mph - N/A Rain Light Rain
8:00 PM 52 °F 51 °F 93% 29.82 in 7 mi 2.2 mph - - Rain Light Rain
8:25 PM 51.8 °F 50.0 °F 94% 29.80 in 6.2 mi Variable 1.2 mph - N/A Rain Light Rain Showers
9:25 PM 51.8 °F 50.0 °F 94% 29.83 in 3.1 mi Variable 2.3 mph - N/A Rain Light Rain
10:25 PM 51.8 °F 50.0 °F 94% 29.83 in 3.1 mi Calm Calm - N/A Rain Light Rain Showers
10:28 PM 51.8 °F 50.0 °F 94% 29.83 in - Calm Calm - N/A Rain Light Rain Showers
10:39 PM 51.8 °F 50.0 °F 94% 29.83 in - Calm Calm - N/A Rain Light Rain Showers
11:00 PM 52 °F 51 °F 94% 29.83 in 2 mi Calm Calm - - Rain Rain
11:25 PM 51.8 °F 50.0 °F 94% 29.83 in 1.9 mi Variable 2.3 mph 16.1 mph N/A Rain Light Rain Showers